x

Smith Island, Wa (sisw1) Weather Station

12:00pm - Sat 25th Mar 2017 All times are PDT. -7 hours from GMT.

  • Wind
    3mph, 6mph gusts
  • Air Temp 46°f
  • Sea Pressure 1019.8mb
  • Smith Island, Wa
  • Smith Island, Wa

More Historic Weather Station data

Upgrade to MSW Pro to gain access to the past 30 days of data for over 8000 Wavebouys and Weather Stations around the globe.

Join Pro

Comparision Forecast

View Surf forecast
   
Sat 03/25 12:00pm 3 6 mph 1019.8mb 46f
11:00am 6 8 mph 1019.3mb 47f
10:00am 8 10 mph 1019.2mb 45f
9:00am 5 7 mph 1018.4mb 45f
8:00am 10 11 mph 1018.2mb 45f
7:00am 13 15 mph 1017.4mb 45f
6:00am 15 24 mph 1016.9mb 45f
5:00am 9 11 mph 1016.8mb 45f
4:00am 14 16 mph 1016.2mb 45f
3:00am 8 10 mph 1016mb 45f
2:00am 16 20 mph 1015.2mb 45f
1:00am 22 25 mph 1014.4mb 45f
12:00am 15 17 mph 1014.1mb 45f
Fri 03/24 11:00pm 9 10 mph 1013.8mb 45f
10:00pm 6
mph
1012.8mb 46f
9:00pm 6 7 mph 1012.1mb 46f
8:00pm 5 6 mph 1011.2mb 46f
7:00pm 6 7 mph 1010.4mb 47f
6:00pm 3
mph
1009.5mb 49f
5:00pm  -  2 mph 1009.2mb 48f
4:00pm 3 5 mph 1008.4mb 50f
3:00pm 23 25 mph 1007.5mb 51f
2:00pm 29 31 mph 1007.6mb 51f
1:00pm 21 23 mph 1007.8mb 50f
12:00pm 21 23 mph 1007.5mb 51f
11:00am 22 24 mph 1007.3mb 49f
10:00am 22 25 mph 1006.8mb 47f
9:00am 23 24 mph 1006.7mb 46f
8:00am 22 24 mph 1006.8mb 46f
7:00am 21 23 mph 1006.9mb 45f
6:00am 22 24 mph 1006.4mb 46f
5:00am 28 32 mph 1006.4mb 45f
4:00am 28 31 mph 1007.1mb 45f
3:00am 26 30 mph 1008.1mb 44f
2:00am 30 32 mph 1009mb 44f
1:00am 25 29 mph 1009.8mb 45f
12:00am 28 30 mph 1009.9mb 45f
Thu 03/23 11:00pm 28 31 mph 1010.2mb 46f
10:00pm 24 29 mph 1010.6mb 47f
9:00pm 28 31 mph 1010.7mb 47f
8:00pm 30 33 mph 1010.6mb 49f
7:00pm 18 21 mph 1011.2mb 50f
6:00pm 18 20 mph 1012mb 50f
5:00pm 28 30 mph 1012.2mb 50f
4:00pm 23 28 mph 1013.2mb 50f
3:00pm 25 28 mph 1014mb 50f
2:00pm 25 28 mph 1014.8mb 49f
1:00pm 31 33 mph 1015.5mb 48f
12:00pm 29 32 mph 1016mb 48f
11:00am 32 36 mph 1016.2mb 47f
10:00am 28 31 mph 1016.6mb 47f
9:00am 22 24 mph 1016.9mb 45f
8:00am 22 24 mph 1017mb 44f
7:00am 21 24 mph 1017mb 43f
6:00am 24 26 mph 1016.9mb 43f
5:00am 23 25 mph 1016.4mb 43f
4:00am 21 24 mph 1016.6mb 43f
3:00am 23 25 mph 1016.5mb 43f
2:00am 16 18 mph 1016.9mb 44f
1:00am 13 14 mph 1017.3mb 44f
12:00am 14 16 mph 1017.1mb 45f
Wed 03/22 11:00pm 5 7 mph 1016.7mb 46f
10:00pm 16 20 mph 1016.2mb 46f
9:00pm 26 32 mph 1015.1mb 46f
8:00pm 34 39 mph 1013.4mb 47f
7:00pm 30 37 mph 1012.3mb 47f
6:00pm 30 33 mph 1011.5mb 47f
5:00pm 29 31 mph 1010.5mb 47f
4:00pm 29 36 mph 1009.2mb 51f
3:00pm 32 36 mph 1008.2mb 50f
2:00pm 30 34 mph 1008mb 51f
1:00pm 30 33 mph 1007.8mb 50f
12:00pm 28 32 mph 1007.8mb 51f
11:00am 25 29 mph 1007.4mb 49f
10:00am 18 21 mph 1006.9mb 50f
9:00am 32 37 mph 1005.9mb 50f
8:00am 28 31 mph 1005.5mb 49f
7:00am 36 39 mph 1004.4mb 50f
6:00am 39 43 mph 1003.5mb 50f
5:00am 29 30 mph 1003.8mb 48f
4:00am 24 25 mph 1004.3mb 48f
3:00am 21 22 mph 1004.5mb 48f
2:00am 16 17 mph 1005mb 49f
1:00am 25 29 mph 1004.9mb 50f
12:00am 15 21 mph 1005.5mb 49f
Tue 03/21 11:00pm 14 16 mph 1005.4mb 47f
10:00pm 11 13 mph 1005.3mb 46f
9:00pm 8 9 mph 1005.2mb 48f